1491465600.54,8682,13.5,72608.0,-3.95,-10.31,-12.29,0,*60
1491465601.8,8683,13.5,72606.5,-3.97,-10.01,-11.81,0,*61
1491465603.02,8684,13.5,72606.0,-3.95,-9.93,-11.59,0,*52
1491465604.25,8685,13.5,72610.5,-3.95,-10.19,-11.73,0,*61
1491465605.45,8686,13.5,72610.3,-3.95,-9.67,-10.93,0,*5C
1491465606.7,8687,13.5,72610.0,-3.93,-9.93,-11.07,0,*5C
1491465607.92,8688,13.5,72608.5,-3.91,-9.75,-10.75,0,*5D
1491465609.15,8689,13.5,72612.3,-3.93,-10.23,-11.01,0,*67
1491465610.36,8690,13.5,72608.3,-3.91,-9.71,-10.31,0,*50
1491465611.58,8691,13.5,72614.3,-3.91,-9.37,-9.93,0,*63
1491465612.78,8692,13.5,72608.8,-3.91,-8.89,-9.31,0,*6C
1491465613.97,8693,13.5,72608.0,-3.87,-8.59,-9.01,0,*64
1491465615.16,8694,13.5,72608.0,-3.87,-8.59,-9.05,0,*67
1491465616.37,8695,13.5,72608.0,-3.81,-8.33,-8.67,0,*69
1491465617.59,8696,13.5,72610.8,-3.81,-8.55,-8.85,0,*66
1491465618.83,8697,13.5,72604.3,-3.77,-8.51,-8.67,0,*66
1491465620.04,8698,13.5,72604.0,-3.77,-8.63,-8.75,0,*6B
1491465621.27,8699,13.5,72602.0,-3.73,-8.93,-8.93,0,*69
1491465622.49,8700,13.5,72602.3,-3.75,-9.15,-8.93,0,*61
1491465623.7,8701,13.5,72604.5,-3.71,-8.97,-8.67,0,*64
1491465624.92,8702,13.5,72600.5,-3.71,-8.71,-8.33,0,*6E
1491465626.12,8703,13.5,72600.3,-3.69,-8.71,-8.21,0,*65
1491465627.39,8704,13.5,72600.8,-3.67,-7.99,-7.57,0,*6B
1491465628.62,8705,13.5,72600.3,-3.65,-7.73,-7.11,0,*6E
1491465629.85,8706,13.5,72604.3,-3.65,-7.73,-7.11,0,*6D
1491465631.1,8707,13.5,72602.5,-3.59,-7.61,-6.73,0,*65
1491465632.3,8708,13.5,72604.3,-3.57,-7.23,-6.47,0,*65
1491465633.49,8709,13.5,72604.0,-3.57,-6.85,-6.09,0,*63
1491465634.68,8710,13.5,72606.0,-3.53,-6.77,-6.01,0,*6A
1491465635.9,8711,13.5,72604.0,-3.49,-6.47,-5.69,0,*6E
1491465637.14,8712,13.5,72608.0,-3.47,-6.23,-5.43,0,*69
1491465638.38,8713,13.5,72610.5,-3.43,-6.19,-5.51,0,*66
1491465639.61,8714,13.5,72610.8,-3.39,-6.01,-5.23,0,*60
1491465640.86,8715,13.5,72608.8,-3.37,-5.55,-4.77,0,*6D
1491465642.1,8716,13.5,72612.8,-3.33,-5.43,-4.77,0,*6D
1491465643.29,8717,13.5,72614.3,-3.27,-6.01,-5.47,0,*6E
1491465644.55,8718,13.5,72616.0,-3.25,-5.73,-5.11,0,*66
1491465645.76,8719,13.5,72622.5,-3.23,-5.73,-5.39,0,*6B
1491465647.01,8720,13.5,72616.3,-3.19,-5.69,-5.31,0,*6B
1491465648.22,8721,13.5,72618.8,-3.17,-5.35,-4.99,0,*6E
1491465649.46,8722,13.5,72618.8,-3.13,-4.81,-4.57,0,*65
1491465650.68,8723,13.5,72616.3,-3.13,-4.41,-4.09,0,*63
1491465651.91,8724,13.5,72618.5,-3.07,-4.77,-4.77,0,*6D
1491465653.16,8725,13.5,72614.5,-3.05,-5.35,-5.23,0,*69
1491465654.38,8726,13.5,72616.8,-3.01,-5.51,-5.43,0,*6A
1491465655.6,8727,13.5,72616.3,-3.01,-5.43,-5.43,0,*68
1491465656.87,8728,13.5,72616.5,-2.97,-5.27,-5.31,0,*6E
1491465658.14,8729,13.5,72616.5,-2.97,-5.69,-5.85,0,*6A
1491465659.4,8730,13.5,72616.3,-2.97,-5.61,-5.69,0,*68
1491465660.62,8731,13.5,72616.8,-2.95,-5.89,-6.01,0,*60
1491465661.82,8732,13.5,72618.8,-2.91,-6.13,-6.47,0,*65
1491465663.02,8733,13.5,72616.8,-2.91,-7.11,-7.49,0,*68
1491465664.26,8734,13.5,72616.8,-2.95,-7.65,-8.03,0,*69
1491465665.45,8735,13.5,72618.5,-2.95,-8.41,-8.71,0,*64
1491465666.65,8736,13.5,72620.0,-2.95,-8.67,-8.85,0,*68
1491465667.87,8737,13.5,72618.5,-2.97,-9.05,-9.27,0,*67
1491465669.08,8738,13.5,72616.5,-2.99,-9.83,-9.89,0,*6C
1491465670.29,8739,13.5,72618.0,-3.03,-10.01,-10.27,0,*61
1491465671.52,8740,13.5,72618.0,-3.07,-10.23,-10.41,0,*6B
1491465672.73,8741,13.5,72614.8,-3.07,-11.11,-11.19,0,*66
1491465673.96,8742,13.5,72618.3,-3.11,-11.15,-11.29,0,*65
1491465675.18,8743,13.5,72622.5,-3.17,-11.19,-11.15,0,*61
1491465676.41,8744,13.5,72616.8,-3.21,-10.53,-10.49,0,*64
1491465677.62,8745,13.5,72616.5,-3.23,-9.45,-9.31,0,*6F
1491465678.83,8746,13.5,72616.5,-3.23,-10.09,-9.83,0,*55
1491465680.05,8747,13.5,72620.3,-3.25,-10.01,-9.75,0,*53
1491465681.25,8748,13.5,72614.0,-3.27,-10.57,-10.49,0,*6A
1491465682.48,8749,13.5,72610.5,-3.29,-10.49,-10.23,0,*66
1491465683.7,8750,13.5,72610.8,-3.29,-10.19,-9.93,0,*58
1491465684.99,8751,13.5,72610.8,-3.33,-10.79,-10.63,0,*63
1491465686.23,8752,13.5,72608.5,-3.35,-10.67,-10.53,0,*6A
1491465687.46,8753,13.5,72610.3,-3.35,-11.33,-11.23,0,*6D
1491465688.74,8754,13.5,72606.8,-3.37,-11.63,-11.51,0,*68
1491465690.0,8755,13.5,72606.0,-3.39,-11.97,-11.89,0,*69
1491465691.25,8756,13.5,72596.8,-3.39,-12.11,-11.93,0,*6C
1491465692.48,8757,13.5,72586.3,-3.43,-12.29,-12.25,0,*65
1491465693.7,8758,13.5,72576.0,-3.47,-13.69,-13.69,0,*62
1491465694.95,8759,13.5,72572.5,-3.51,-13.73,-13.61,0,*67
1491465696.24,8760,13.5,72570.3,-3.55,-12.79,-12.71,0,*62
1491465697.49,8761,13.5,72568.0,-3.59,-11.89,-12.03,0,*66
1491465698.75,8762,13.5,72562.3,-3.59,-10.49,-10.63,0,*6C
1491465699.99,8763,13.5,72558.0,-3.61,-9.45,-9.61,0,*68
1491465701.19,8764,13.5,72558.8,-3.61,-9.75,-9.97,0,*65
1491465702.4,8765,13.5,72552.3,-3.65,-10.01,-10.27,0,*68
1491465703.62,8766,13.5,72546.3,-3.65,-9.61,-9.89,0,*69
1491465704.84,8767,13.5,72546.8,-3.67,-9.93,-10.05,0,*5B
1491465706.09,8768,13.5,72548.5,-3.65,-9.37,-9.37,0,*61
1491465707.37,8769,13.5,72556.8,-3.67,-9.37,-9.49,0,*6B
1491465708.58,8770,13.5,72554.8,-3.67,-9.67,-9.89,0,*6A
1491465709.83,8771,13.5,72554.0,-3.67,-9.23,-9.45,0,*6B
1491465711.09,8772,13.5,72556.3,-3.67,-9.05,-9.11,0,*6D
1491465712.31,8773,13.5,72564.5,-3.67,-8.85,-9.19,0,*6D
1491465713.54,8774,13.5,72556.0,-3.67,-8.93,-9.23,0,*64
1491465714.79,8775,13.5,72556.8,-3.67,-8.85,-9.11,0,*63
1491465716.04,8776,13.5,72564.8,-3.67,-8.97,-9.37,0,*67
1491465717.28,8777,13.5,72568.0,-3.67,-10.01,-10.27,0,*69
1491465718.53,8778,13.5,72568.5,-3.69,-9.37,-9.41,0,*6D
1491465719.72,8779,13.5,72570.0,-3.69,-8.21,-8.45,0,*6F
1491465720.95,8780,13.5,72572.8,-3.71,-8.71,-8.89,0,*65
1491465722.15,8781,13.5,72574.8,-3.71,-8.33,-8.67,0,*62
1491465723.34,8782,13.5,72586.5,-3.69,-8.45,-8.71,0,*6E
1491465724.58,8783,13.5,72590.5,-3.71,-7.95,-8.41,0,*67
1491465725.81,8784,13.5,72590.8,-3.69,-9.49,-10.31,0,*58
1491465727.08,8785,13.5,72586.0,-3.71,-9.83,-10.63,0,*51
1491465728.32,8786,13.5,72580.5,-3.71,-9.83,-10.31,0,*55
1491465729.57,8787,13.5,72578.0,-3.71,-9.83,-10.19,0,*5E
1491465730.8,8788,13.5,72578.3,-3.73,-9.71,-10.15,0,*52
1491465732.0,8789,13.5,72576.3,-3.75,-9.97,-10.27,0,*5C
1491465733.26,8790,13.5,72572.5,-3.73,-9.31,-9.53,0,*65
1491465734.48,8791,13.5,72580.3,-3.75,-9.31,-9.53,0,*62
1491465735.72,8792,13.5,72584.5,-3.73,-9.31,-9.41,0,*64
1491465736.95,8793,13.5,72584.3,-3.73,-9.27,-9.05,0,*62
1491465738.18,8794,13.5,72584.0,-3.73,-9.05,-9.01,0,*61
1491465739.39,8795,13.5,72580.5,-3.75,-8.59,-8.51,0,*6A
1491465740.66,8796,13.5,72580.8,-3.73,-7.95,-7.91,0,*63
1491465741.88,8797,13.5,72582.5,-3.71,-7.87,-7.87,0,*64
1491465743.12,8798,13.5,72586.5,-3.69,-7.91,-7.95,0,*66
1491465744.36,8799,13.56,72586.5,-3.69,-7.77,-7.77,0,*63
1491465745.59,8800,13.5,72586.8,-3.69,-7.53,-7.61,0,*6D
1491465746.78,8801,13.5,72586.3,-3.69,-8.17,-8.29,0,*60
1491465748.02,8802,13.5,72588.5,-3.67,-8.55,-8.81,0,*69
1491465749.27,8803,13.5,72592.8,-3.67,-8.25,-8.51,0,*62
1491465750.46,8804,13.5,72596.0,-3.65,-8.41,-8.67,0,*60
1491465751.68,8805,13.56,72600.0,-3.65,-7.99,-8.17,0,*6C
1491465752.89,8806,13.5,72596.8,-3.67,-9.19,-9.31,0,*6E
1491465754.12,8807,13.5,72604.0,-3.67,-8.93,-8.71,0,*69
1491465755.37,8808,13.5,72604.3,-3.67,-9.23,-9.11,0,*6B
1491465756.63,8809,13.56,72604.8,-3.67,-11.01,-10.75,0,*69
1491465757.89,8810,13.56,72602.5,-3.67,-10.75,-10.49,0,*6C
1491465759.1,8811,13.5,72592.8,-3.69,-10.23,-10.05,0,*68
1491465760.32,8812,13.5,72594.8,-3.71,-8.89,-8.75,0,*65
1491465761.53,8813,13.5,72594.3,-3.71,-8.71,-8.55,0,*61
1491465762.75,8814,13.5,72588.0,-3.71,-8.71,-8.45,0,*67
1491465763.97,8815,13.5,72584.0,-3.71,-9.23,-9.01,0,*61
1491465765.19,8816,13.5,72582.8,-3.71,-8.89,-8.67,0,*62
1491465766.41,8817,13.5,72570.0,-3.71,-9.27,-9.01,0,*67
1491465767.65,8818,13.5,72574.8,-3.71,-9.71,-9.41,0,*6F
1491465768.88,8819,13.56,72576.0,-3.73,-9.01,-8.93,0,*65
1491465770.11,8820,13.5,72582.0,-3.71,-8.89,-8.85,0,*6B
1491465771.33,8821,13.5,72578.5,-3.71,-9.01,-8.89,0,*67
1491465772.58,8822,13.56,72582.5,-3.73,-8.89,-8.81,0,*6F
1491465773.8,8823,13.5,72576.0,-3.73,-8.63,-8.75,0,*61
1491465775.03,8824,13.5,72586.3,-3.73,-8.71,-8.89,0,*66
1491465776.25,8825,13.5,72586.3,-3.71,-8.17,-8.21,0,*67
1491465777.46,8826,13.5,72590.8,-3.71,-8.41,-8.45,0,*65
1491465778.67,8827,13.56,72600.8,-3.71,-8.29,-8.55,0,*6B
1491465779.88,8828,13.5,72598.0,-3.71,-8.17,-8.29,0,*62
1491465781.07,8829,13.5,72602.0,-3.69,-8.17,-8.33,0,*61
1491465782.28,8830,13.5,72606.5,-3.71,-8.29,-8.67,0,*6C
1491465783.53,8831,13.5,72610.0,-3.71,-9.27,-9.53,0,*64
1491465784.75,8832,13.5,72608.5,-3.71,-9.01,-9.27,0,*60
1491465785.97,8833,13.5,72610.3,-3.73,-8.59,-8.71,0,*6D
1491465787.19,8834,13.5,72608.8,-3.73,-8.75,-8.93,0,*68
1491465788.43,8835,13.5,72610.0,-3.73,-8.63,-9.15,0,*61
1491465789.63,8836,13.5,72610.3,-3.75,-9.31,-9.71,0,*60
1491465790.87,8837,13.5,72604.8,-3.73,-9.57,-10.09,0,*50
1491465792.1,8838,13.56,72610.5,-3.75,-9.83,-10.27,0,*5C
1491465793.33,8839,13.5,72600.8,-3.75,-10.01,-10.41,0,*6F
1491465794.56,8840,13.5,72600.8,-3.77,-9.61,-9.93,0,*6A
1491465795.79,8841,13.5,72598.8,-3.79,-10.41,-10.85,0,*60
1491465796.99,8842,13.5,72592.3,-3.79,-10.85,-11.23,0,*66
1491465798.24,8843,13.5,72586.5,-3.81,-11.41,-11.73,0,*6C
1491465799.53,8844,13.5,72588.5,-3.89,-12.07,-12.57,0,*67
1491465800.82,8845,13.5,72588.5,-3.89,-11.63,-11.67,0,*67
1491465802.05,8846,13.56,72588.3,-3.93,-10.19,-10.49,0,*6E
1491465803.33,8847,13.56,72590.3,-3.93,-9.37,-9.53,0,*68
1491465804.57,8848,13.56,72588.3,-3.93,-8.97,-9.37,0,*6E
1491465805.82,8849,13.56,72590.0,-3.93,-9.23,-9.61,0,*62
1491465807.06,8850,13.5,72582.0,-3.93,-9.49,-9.93,0,*6B
1491465808.29,8851,13.56,72586.5,-3.95,-9.41,-9.93,0,*64
1491465809.53,8852,13.5,72584.3,-3.95,-8.81,-9.41,0,*65
1491465810.74,8853,13.5,72582.3,-3.95,-9.27,-10.19,0,*5C
1491465811.94,8854,13.5,72584.3,-3.95,-10.05,-11.19,0,*62
1491465813.19,8855,13.5,72582.0,-3.97,-10.09,-11.37,0,*61
1491465814.43,8856,13.56,72586.0,-4.01,-10.15,-11.41,0,*66
1491465815.67,8857,13.5,72586.8,-4.01,-10.05,-11.51,0,*67
1491465816.88,8858,13.5,72584.8,-4.03,-10.53,-12.21,0,*6D
1491465818.08,8859,13.5,72588.5,-4.03,-10.45,-12.25,0,*6F
1491465819.29,8860,13.5,72584.5,-4.05,-10.49,-12.43,0,*6F
1491465820.58,8861,13.5,72588.8,-4.11,-10.63,-12.71,0,*62
1491465821.81,8862,13.5,72582.0,-4.11,-10.89,-12.93,0,*69
1491465823.06,8863,13.56,72588.0,-4.11,-11.51,-13.73,0,*63
1491465824.3,8864,13.56,72588.0,-4.13,-11.63,-13.73,0,*67
1491465825.53,8865,13.5,72594.8,-4.13,-11.73,-13.73,0,*67
1491465826.79,8866,13.56,72594.8,-4.15,-11.55,-13.51,0,*66
1491465828.07,8867,13.5,72594.0,-4.19,-11.59,-13.83,0,*68
1491465829.33,8868,13.5,72598.5,-4.19,-11.97,-14.37,0,*6D
1491465830.59,8869,13.56,72596.0,-4.21,-12.35,-15.21,0,*6A
1491465831.87,8870,13.56,72604.3,-4.23,-12.83,-15.89,0,*6F
1491465833.11,8871,13.56,72604.5,-4.25,-12.93,-16.09,0,*62
1491465834.35,8872,13.56,72604.8,-4.27,-13.07,-16.37,0,*62
1491465835.61,8873,13.5,72600.3,-4.29,-13.79,-17.07,0,*66
1491465836.83,8874,13.5,72604.3,-4.33,-14.15,-17.49,0,*6D
1491465838.04,8875,13.5,72600.0,-4.33,-14.37,-17.69,0,*6E
1491465839.3,8876,13.56,72602.3,-4.37,-14.83,-17.97,0,*67
1491465840.53,8877,13.5,72594.8,-4.37,-14.83,-17.83,0,*63
1491465841.77,8878,13.56,72596.5,-4.41,-15.21,-18.01,0,*61
1491465842.97,8879,13.56,72594.8,-4.41,-15.75,-18.45,0,*61
1491465844.19,8880,13.5,72602.0,-4.41,-16.27,-18.99,0,*62
1491465845.39,8881,13.56,72600.3,-4.45,-16.37,-18.69,0,*69
1491465846.58,8882,13.5,72594.0,-4.45,-16.03,-18.17,0,*64
1491465847.8,8883,13.56,72590.0,-4.45,-16.23,-18.17,0,*67
1491465849.03,8884,13.5,72592.8,-4.45,-16.65,-18.41,0,*61
1491465850.25,8885,13.5,72590.8,-4.49,-16.69,-18.21,0,*66
1491465851.49,8886,13.56,72594.3,-4.49,-16.65,-17.93,0,*6F
1491465852.75,8887,13.56,72596.8,-4.51,-16.65,-17.87,0,*62
1491465853.99,8888,13.56,72598.3,-4.55,-16.89,-17.63,0,*61
1491465855.24,8889,13.5,72588.5,-4.51,-16.97,-17.45,0,*6F
1491465856.51,8890,13.56,72590.8,-4.55,-17.03,-17.17,0,*68
1491465857.73,8891,13.5,72586.5,-4.51,-16.79,-16.37,0,*62
1491465859.0,8892,13.56,72590.3,-4.51,-17.11,-16.27,0,*6F
1491465860.25,8893,13.56,72590.5,-4.55,-17.17,-15.67,0,*6B
1491465861.52,8894,13.56,72590.8,-4.55,-16.69,-14.93,0,*6E
1491465862.77,8895,13.56,72590.3,-4.55,-16.13,-14.23,0,*69
1491465864.04,8896,13.56,72590.5,-4.51,-15.81,-13.61,0,*67
1491465865.31,8897,13.56,72592.3,-4.51,-15.01,-12.35,0,*6E
1491465866.56,8898,13.5,72590.8,-4.51,-13.19,-10.41,0,*6F
1491465867.81,8899,13.56,72592.8,-4.47,-12.25,-9.11,0,*5A
1491465869.07,8900,13.56,72592.0,-4.43,-11.81,-8.81,0,*5A
1491465870.27,8901,13.56,72594.5,-4.39,-11.19,-8.25,0,*59
1491465871.52,8902,13.5,72588.5,-4.35,-10.53,-7.77,0,*51
1491465872.75,8903,13.56,72594.5,-4.29,-10.27,-7.57,0,*5C
1491465874.0,8904,13.56,72596.3,-4.25,-9.61,-7.27,0,*6A
1491465875.2,8905,13.56,72598.3,-4.21,-8.71,-6.47,0,*68
1491465876.4,8906,13.5,72594.3,-4.17,-8.25,-6.09,0,*65
1491465877.68,8907,13.56,72596.0,-4.11,-7.95,-6.19,0,*67
1491465878.93,8908,13.56,72598.5,-4.09,-7.57,-6.19,0,*6F
1491465880.15,8909,13.56,72598.0,-4.03,-7.73,-6.55,0,*6A
1491465881.38,8910,13.56,72596.0,-4.03,-7.43,-6.47,0,*62
1491465882.59,8911,13.56,72594.8,-3.95,-7.65,-6.69,0,*63
1491465883.81,8912,13.5,72588.5,-3.95,-7.65,-6.73,0,*6B
1491465885.06,8913,13.56,72594.8,-3.93,-7.65,-6.73,0,*6C
1491465886.25,8914,13.56,72594.5,-3.91,-7.49,-6.81,0,*6A
1491465887.5,8915,13.5,72592.5,-3.89,-7.61,-6.77,0,*61
1491465888.72,8916,13.56,72596.3,-3.87,-7.65,-6.73,0,*6C
1491465889.96,8917,13.56,72598.0,-3.81,-7.65,-6.73,0,*6B
1491465891.21,8918,13.5,72590.5,-3.81,-8.21,-7.27,0,*6B
1491465892.43,8919,13.56,72598.0,-3.79,-8.37,-7.57,0,*6D
1491465893.64,8920,13.56,72598.8,-3.77,-7.49,-6.43,0,*6B
1491465894.88,8921,13.5,72598.5,-3.77,-7.43,-6.43,0,*60
1491465896.1,8922,13.56,72600.5,-3.73,-6.89,-6.09,0,*6E
1491465897.35,8923,13.5,72600.0,-3.73,-6.89,-6.27,0,*63
1491465898.54,8924,13.56,72610.8,-3.69,-6.81,-6.13,0,*60
1491465899.73,8925,13.56,72608.3,-3.65,-6.69,-6.09,0,*60
1491465900.96,8926,13.56,72608.0,-3.65,-6.55,-5.89,0,*67
1491465902.18,8927,13.56,72604.8,-3.61,-7.05,-6.47,0,*67
1491465903.4,8928,13.5,72600.3,-3.59,-7.15,-6.69,0,*6E
1491465904.62,8929,13.56,72604.8,-3.59,-7.15,-6.73,0,*64
1491465905.82,8930,13.56,72604.5,-3.57,-7.11,-6.81,0,*6B
1491465907.07,8931,13.56,72604.5,-3.55,-6.93,-6.55,0,*6A
1491465908.28,8932,13.56,72608.5,-3.55,-6.89,-6.51,0,*66
1491465909.5,8933,13.56,72608.3,-3.55,-6.51,-6.13,0,*64
1491465910.72,8934,13.5,72610.5,-3.51,-6.47,-6.13,0,*60
1491465911.93,8935,13.56,72614.5,-3.51,-6.59,-6.39,0,*66
1491465913.18,8936,13.5,72608.5,-3.51,-6.93,-6.73,0,*6D
1491465914.39,8937,13.56,72610.5,-3.47,-6.73,-6.59,0,*6D
1491465915.6,8938,13.5,72606.0,-3.47,-6.85,-6.69,0,*68
1491465916.81,8939,13.56,72608.3,-3.47,-6.59,-6.47,0,*64
1491465918.0,8940,13.5,72610.0,-3.45,-6.69,-6.47,0,*6B
1491465919.22,8941,13.5,72610.8,-3.43,-6.55,-6.51,0,*64
1491465920.43,8942,13.56,72612.3,-3.43,-6.69,-6.55,0,*6C
1491465921.67,8943,13.56,72608.0,-3.43,-6.85,-6.93,0,*65
1491465922.91,8944,13.5,72608.0,-3.43,-6.85,-6.93,0,*62
1491465924.12,8945,13.56,72612.3,-3.39,-7.05,-7.15,0,*68
1491465925.32,8946,13.5,72614.8,-3.39,-7.15,-7.19,0,*66
1491465926.59,8947,13.56,72620.0,-3.37,-7.39,-7.43,0,*68
1491465927.83,8948,13.56,72620.8,-3.37,-7.69,-7.87,0,*6A
1491465929.02,8949,13.56,72618.5,-3.39,-8.37,-8.55,0,*61
1491465930.25,8950,13.5,72598.8,-3.43,-8.81,-8.93,0,*63
1491465931.46,8951,13.56,72600.8,-3.43,-8.67,-8.71,0,*66
1491465932.7,8952,13.56,72606.0,-3.45,-7.95,-7.95,0,*64
1491465933.96,8953,13.56,72614.8,-3.43,-8.03,-7.99,0,*6F
1491465935.2,8954,13.56,72614.5,-3.45,-7.77,-7.77,0,*62
1491465936.4,8955,13.56,72604.8,-3.43,-8.59,-8.67,0,*68
1491465937.59,8956,13.56,72600.5,-3.45,-8.41,-8.41,0,*60
1491465938.79,8957,13.56,72598.5,-3.45,-8.89,-8.89,0,*61
1491465940.03,8958,13.56,72598.8,-3.45,-9.37,-9.45,0,*6B
1491465941.22,8959,13.56,72594.3,-3.49,-8.67,-8.97,0,*6C
1491465942.44,8960,13.56,72596.5,-3.49,-8.51,-8.63,0,*68
1491465943.68,8961,13.56,72602.0,-3.47,-8.97,-9.11,0,*69
1491465944.87,8962,13.56,72598.5,-3.49,-9.71,-9.97,0,*63
1491465946.08,8963,13.56,72602.3,-3.53,-10.01,-10.35,0,*66
1491465947.28,8964,13.5,72602.0,-3.53,-9.05,-9.19,0,*6B
1491465948.53,8965,13.56,72604.3,-3.53,-9.11,-9.45,0,*66
1491465949.76,8966,13.56,72600.8,-3.55,-9.53,-9.89,0,*65
1491465950.96,8967,13.56,72602.8,-3.57,-8.97,-9.27,0,*6B
1491465952.21,8968,13.56,72600.0,-3.59,-8.85,-9.15,0,*68
1491465953.42,8969,13.56,72596.8,-3.59,-8.33,-8.71,0,*67
1491465954.61,8970,13.56,72596.0,-3.57,-8.29,-8.63,0,*69
1491465955.8,8971,13.5,72596.8,-3.57,-8.21,-8.59,0,*69
1491465957.0,8972,13.5,72592.5,-3.57,-8.71,-9.27,0,*67
1491465958.22,8973,13.56,72598.5,-3.57,-8.89,-9.49,0,*69
1491465959.45,8974,13.5,72596.8,-3.57,-8.59,-9.37,0,*6A
1491465960.67,8975,13.56,72602.8,-3.59,-8.59,-9.67,0,*60
1491465961.93,8976,13.56,72602.5,-3.59,-9.01,-10.63,0,*53
1491465963.15,8977,13.56,72600.3,-3.61,-10.01,-11.97,0,*6B
1491465964.44,8978,13.56,72600.8,-3.59,-10.67,-13.61,0,*64
1491465965.72,8979,13.56,72602.3,-3.67,-11.85,-16.13,0,*65
1491465966.99,8980,13.56,72604.8,-3.67,-11.67,-16.59,0,*61
1491465968.23,8981,13.56,72604.0,-3.71,-11.85,-16.93,0,*6D
1491465969.48,8982,13.56,72602.3,-3.71,-12.43,-18.01,0,*62
1491465970.71,8983,13.5,72594.8,-3.75,-13.33,-19.51,0,*65
1491465971.96,8984,13.56,72590.8,-3.77,-13.93,-20.19,0,*6C
1491465973.16,8985,13.56,72588.5,-3.79,-15.15,-21.73,0,*66
1491465974.39,8986,13.5,72580.0,-3.79,-15.85,-22.27,0,*6E
1491465975.59,8987,13.56,72588.3,-3.83,-16.37,-22.27,0,*60
1491465976.79,8988,13.5,72584.8,-3.87,-17.69,-23.59,0,*69
1491465978.02,8989,13.56,72588.3,-3.89,-19.07,-24.47,0,*68
1491465979.25,8990,13.56,72592.5,-3.93,-19.75,-25.19,0,*64
1491465980.51,8991,13.56,72578.5,-3.95,-20.53,-25.55,0,*65
1491465981.75,8992,13.56,72576.0,-4.01,-21.73,-26.23,0,*6D
1491465983.0,8993,13.56,72580.0,-4.01,-21.63,-25.81,0,*66
1491465984.24,8994,13.5,72580.5,-4.05,-21.13,-24.87,0,*65
1491465985.48,8995,13.56,72584.5,-4.05,-21.17,-24.71,0,*69
1491465986.76,8996,13.56,72588.0,-4.15,-20.83,-23.65,0,*65
1491465988.01,8997,13.56,72580.3,-4.15,-20.93,-22.73,0,*63
1491465989.27,8998,13.56,72590.5,-4.19,-20.25,-21.27,0,*6F
1491465990.5,8999,13.56,72594.3,-4.21,-20.43,-20.59,0,*6D
1491465991.76,9000,13.56,72592.3,-4.23,-19.31,-19.17,0,*68
1491465993.04,9001,13.56,72594.8,-4.27,-17.79,-17.59,0,*6B
1491465994.33,9002,13.5,72592.5,-4.27,-16.69,-16.23,0,*64
1491465995.59,9003,13.56,72592.0,-4.27,-15.63,-15.35,0,*68
1491465996.8,9004,13.56,72580.0,-4.29,-16.79,-16.45,0,*6D
1491465998.03,9005,13.56,72578.8,-4.29,-16.93,-15.57,0,*68
1491465999.26,9006,13.56,72582.3,-4.33,-16.45,-14.51,0,*6C
1491466000.5,9007,13.56,72584.5,-4.33,-14.83,-12.43,0,*60
1491466001.74,9008,13.56,72588.5,-4.33,-12.43,-10.71,0,*66
1491466002.96,9009,13.5,72586.5,-4.29,-11.41,-10.15,0,*6F
1491466004.17,9010,13.5,72584.8,-4.29,-10.15,-9.19,0,*53
1491466005.39,9011,13.56,72584.0,-4.25,-9.49,-9.05,0,*62
1491466006.59,9012,13.56,72580.5,-4.25,-9.05,-9.05,0,*69
1491466007.81,9013,13.56,72590.5,-4.21,-8.97,-9.15,0,*67
1491466009.04,9014,13.5,72582.3,-4.21,-9.83,-10.23,0,*59
1491466010.27,9015,13.56,72590.5,-4.17,-9.61,-10.15,0,*54
1491466011.49,9016,13.56,72580.3,-4.19,-9.93,-10.57,0,*52
1491466012.74,9017,13.56,72586.3,-4.17,-11.29,-12.39,0,*6F
1491466013.97,9018,13.56,72580.3,-4.19,-13.11,-14.37,0,*6F
1491466015.25,9019,13.56,72584.3,-4.23,-11.89,-12.83,0,*6D
1491466016.48,9020,13.56,72588.5,-4.21,-11.19,-11.97,0,*6A
1491466017.76,9021,13.56,72594.8,-4.23,-11.33,-11.77,0,*6F
1491466019.02,9022,13.56,72598.8,-4.21,-10.75,-11.51,0,*69
1491466020.26,9023,13.5,72602.0,-4.21,-11.19,-11.89,0,*66
1491466021.52,9024,13.56,72604.5,-4.21,-11.07,-11.85,0,*62
1491466022.79,9025,13.56,72602.3,-4.21,-12.35,-13.61,0,*69
1491466024.07,9026,13.56,72596.0,-4.19,-12.57,-12.79,0,*6D
1491466025.33,9027,13.56,72594.3,-4.17,-11.81,-11.55,0,*67
1491466026.59,9028,13.56,72584.5,-4.15,-11.67,-10.85,0,*6E
1491466027.82,9029,13.56,72586.5,-4.13,-11.15,-9.45,0,*58
1491466029.07,9030,13.56,72590.0,-4.09,-9.45,-7.39,0,*62
1491466030.29,9031,13.56,72586.0,-4.03,-8.51,-6.47,0,*65
1491466031.49,9032,13.56,72586.3,-3.95,-8.45,-6.39,0,*62
1491466032.68,9033,13.56,72592.5,-3.91,-8.67,-6.39,0,*67
1491466033.89,9034,13.56,72588.8,-3.87,-7.69,-5.39,0,*65
1491466035.16,9035,13.56,72584.0,-3.77,-7.01,-5.11,0,*6F
1491466036.39,9036,13.56,72580.5,-3.73,-7.15,-5.55,0,*6D
1491466037.63,9037,13.56,72582.8,-3.69,-7.35,-6.23,0,*67
1491466038.83,9038,13.5,72576.3,-3.65,-6.77,-5.97,0,*6F
1491466040.05,9039,13.56,72580.5,-3.61,-7.05,-6.59,0,*6F
1491466041.31,9040,13.56,72578.0,-3.55,-7.99,-7.69,0,*61
1491466042.51,9041,13.56,72586.3,-3.57,-9.01,-8.89,0,*6C
1491466043.73,9042,13.56,72584.5,-3.55,-9.05,-8.93,0,*62
1491466044.97,9043,13.56,72588.8,-3.55,-8.85,-8.81,0,*69
1491466046.17,9044,13.56,72588.3,-3.57,-8.97,-8.97,0,*68
1491466047.38,9045,13.56,72588.5,-3.55,-8.55,-8.59,0,*67
1491466048.65,9046,13.56,72586.0,-3.55,-7.77,-7.73,0,*6C
1491466049.91,9047,13.56,72582.5,-3.55,-7.91,-8.11,0,*6E
1491466051.13,9048,13.56,72586.8,-3.53,-8.11,-8.41,0,*65
1491466052.34,9049,13.56,72588.0,-3.53,-8.81,-9.23,0,*68
1491466053.54,9050,13.56,72590.0,-3.53,-8.75,-9.19,0,*62
1491466054.79,9051,13.56,72588.5,-3.51,-9.01,-9.61,0,*6C
1491466056.01,9052,13.56,72590.5,-3.51,-8.55,-9.05,0,*6D
1491466057.23,9053,13.56,72588.3,-3.51,-8.45,-9.01,0,*69
1491466058.45,9054,13.56,72590.0,-3.51,-8.75,-9.19,0,*64
1491466059.67,9055,13.56,72596.0,-3.49,-8.93,-9.45,0,*6D
1491466060.87,9056,13.56,72596.8,-3.49,-8.55,-9.01,0,*64
1491466062.09,9057,13.56,72598.8,-3.49,-9.45,-9.75,0,*66
1491466063.36,9058,13.56,72596.8,-3.47,-9.37,-9.41,0,*65
1491466064.56,9059,13.56,72598.8,-3.47,-8.97,-8.75,0,*69
1491466065.76,9060,13.56,72598.8,-3.49,-9.27,-9.01,0,*65
1491466067.0,9061,13.56,72600.5,-3.47,-8.89,-8.51,0,*6B
1491466068.18,9062,13.56,72600.5,-3.45,-8.75,-8.33,0,*6D
1491466069.4,9063,13.56,72598.8,-3.45,-8.29,-7.77,0,*6A
1491466070.64,9064,13.56,72588.0,-3.43,-8.41,-8.11,0,*6A
1491466071.87,9065,13.56,72594.8,-3.43,-8.29,-7.99,0,*6A
1491466073.14,9066,13.56,72594.5,-3.43,-8.03,-7.77,0,*61
1491466074.41,9067,13.56,72592.8,-3.43,-8.11,-7.73,0,*67
1491466075.67,9068,13.56,72588.8,-3.37,-7.99,-7.69,0,*6F
1491466076.92,9069,13.56,72588.0,-3.37,-7.87,-7.61,0,*69
1491466078.2,9070,13.56,72590.0,-3.37,-7.73,-7.43,0,*6A
1491466079.48,9071,13.56,72594.8,-3.37,-7.57,-7.43,0,*6D
1491466080.71,9072,13.56,72598.0,-3.35,-7.35,-7.23,0,*6E
1491466081.95,9073,13.56,72600.3,-3.33,-6.97,-6.73,0,*64
1491466083.2,9074,13.56,72606.5,-3.33,-7.01,-6.85,0,*64
1491466084.42,9075,13.56,72604.8,-3.29,-6.85,-6.51,0,*6A
1491466085.61,9076,13.56,72604.5,-3.27,-6.85,-6.55,0,*63
1491466086.85,9077,13.56,72598.0,-3.25,-7.15,-6.93,0,*62
1491466088.04,9078,13.56,72598.3,-3.23,-6.89,-6.59,0,*69
1491466089.25,9079,13.56,72602.5,-3.23,-6.23,-6.05,0,*61
1491466090.49,9080,13.56,72602.3,-3.19,-7.31,-7.31,0,*6A
1491466091.68,9081,13.56,72596.0,-3.19,-6.69,-6.55,0,*64
1491466092.88,9082,13.56,72600.5,-3.19,-6.43,-6.43,0,*68
1491466094.09,9083,13.56,72598.5,-3.13,-6.77,-6.89,0,*62
1491466095.31,9084,13.56,72598.8,-3.11,-6.81,-7.05,0,*6B
1491466096.52,9085,13.56,72600.8,-3.11,-6.63,-7.15,0,*67
1491466097.79,9086,13.56,72602.0,-3.09,-7.31,-8.11,0,*60
1491466099.0,9087,13.56,72596.5,-3.09,-7.83,-8.71,0,*6E
1491466100.23,9088,13.56,72596.8,-3.09,-8.71,-9.67,0,*65
1491466101.45,9089,13.56,72598.3,-3.09,-8.63,-9.27,0,*63
1491466102.68,9090,13.56,72596.8,-3.11,-7.61,-8.37,0,*6F
1491466103.87,9091,13.56,72598.8,-3.07,-7.83,-8.63,0,*64
1491466105.08,9092,13.56,72598.5,-3.07,-7.91,-8.59,0,*6D
1491466106.29,9093,13.56,72598.3,-3.07,-7.69,-8.21,0,*64
1491466107.5,9094,13.56,72592.8,-3.05,-8.33,-8.71,0,*64
1491466108.71,9095,13.56,72594.5,-3.05,-8.55,-8.93,0,*69
1491466109.94,9096,13.56,72594.5,-3.07,-8.89,-9.41,0,*67
1491466111.17,9097,13.56,72592.8,-3.07,-8.85,-9.45,0,*6E
1491466112.41,9098,13.56,72592.5,-3.05,-8.85,-9.53,0,*64
1491466113.64,9099,13.56,72588.0,-3.07,-9.79,-10.75,0,*59
1491466114.86,9100,13.56,72588.3,-3.07,-10.97,-12.21,0,*63
1491466116.14,9101,13.56,72588.8,-3.09,-11.51,-12.75,0,*66